Zheda Pixing 1A

operational
NORAD ID: 37166 Int'l Des: 2010-047 Owner: ZHEJ Country: CN
LEOCIRCULARRETROGRADESSO

关于 Zheda Pixing 1A

正在加载描述...

实时位置

正在加载3D地球...

即将过境

高度历史

Altitude vs Time

uPlot chart will show altitude changes over time

两行轨道根数

1 37166U 10047B 26062.60261831 .00002909 00000-0 30095-3 0 9998
2 37166 97.9378 40.0859 0018018 269.4500 90.4653 14.90775568834686
Epoch: Mar 3, 2026 • Age: 27 hours

当前状态

高度 597.7 km
速度 7.56 km/s
星下点 -6.60°S, 19.17°E
发射日期 Sep 22, 2010
运行时间 15.4 years
类型 other

技术详情

分类 Payload
质量 2.50 kg
干质量 2.50 kg
总质量 2.50 kg
长度 0.20 m
直径 0.20 m
跨度 0.20 m
形状 Box
制造商 ZHEJ
阶段状态 In Orbit
所有者/国家 ZHEJ/CN

大型星座

Loading constellations...